sat.trackr.live / text

‹ back to catalog

STARLINK-35469

NORAD 65863 · 2025-223K

PAYLOAD ACTIVE UNKNOWN

§ Identity

Operator
Country
US
Launch date
2025-10-03
Launch site
AFWTR
Launch vehicle
Mass (kg)
RCS (m²)

Purposes: comms

External: N2YO · Heavens-Above · Gunter

§ Orbital elements

Epoch: 2026-09-20T22:44:33.462528Z

Period
93.85 min
Inclination
53.1569°
Eccentricity
0.0001374
Mean motion
15.34394592 rev/d
Perigee alt
461.8 km
Apogee alt
463.7 km
Semi-major
6,840.9 km
B*
1.6775e-4
RAAN
103.4583°
Arg perigee
92.5490°
Mean anomaly
267.5670°
Rev number
5,415

§ Raw data

STARLINK-354691 65863U 25223K   26263.94760952  .00005294  00000+0  16775-3 0  99912 65863  53.1569 103.4583 0001374  92.5490 267.5670 15.34394592 54150

JSON: /api/v1/satellites/65863 · /tle

For live sub-satellite position, see the globe view (requires WebGL).

§ Visibility from observer

Set your observer location to see the next 7 days of passes ≥ 10°. The values pass through the URL so the page stays shareable.

No JS? Fill the form by hand. The geolocation button needs JavaScript.